Wind_Speed
10 9 9 9 8 8 6 5 4 3 3 2 2 3 3 4 4 4 4 5 5 5 5 4 3 4 3 3 3 3 3 2 2 3 3 3 4 5 5 5 6 6 6 7
12 11 12 11 10 9 7 6 5 5 4 3 3 3 3 5 5 4 4 5 6 6 6 5 4 4 3 3 3 3 2 2 3 3 4 4 5 5 5 5 6 7 7 7
14 14 13 12 11 10 8 7 7 6 5 4 3 3 4 5 5 5 5 5 6 6 7 6 6 5 4 4 4 4 3 4 4 4 5 5 6 6 6 6 7 7 7 8
15 14 13 13 12 10 9 8 7 6 5 5 5 4 5 5 6 6 6 6 6 6 7 7 7 6 6 5 5 5 4 5 6 6 6 7 7 7 7 8 8 8 9 9
16 15 14 14 14 13 11 9 8 7 6 5 5 4 5 5 6 7 7 7 8 8 7 8 8 7 7 7 7 7 6 6 7 7 7 8 8 8 9 9 10 10 10 10
17 16 15 15 15 15 12 10 8 8 7 7 6 5 5 6 6 7 8 8 8 8 8 8 8 8 8 8 9 8 8 8 8 9 9 10 10 10 11 11 11 12 12 12
17 16 16 16 15 14 12 10 9 8 8 9 8 7 6 7 7 8 9 9 8 9 9 9 8 8 9 9 9 9 9 10 10 11 11 11 12 12 12 12 12 12 13 14
17 17 17 16 15 14 13 12 11 10 10 10 11 9 9 9 9 9 9 9 9 10 9 9 10 9 9 9 9 10 10 11 12 12 13 13 13 13 13 13 13 13 14 14
19 18 18 18 17 17 15 14 13 11 11 10 11 10 11 11 10 10 10 10 10 10 10 10 10 11 10 10 10 10 11 12 13 13 14 14 14 14 14 14 14 15 15 15
21 21 20 19 19 19 18 16 14 12 11 11 11 11 12 12 11 11 11 10 10 10 11 11 10 10 10 11 11 11 12 12 13 14 14 14 14 14 14 14 14 15 16 16
21 21 21 20 19 19 19 17 16 14 13 12 11 12 13 13 12 11 11 11 11 11 11 12 12 11 11 12 13 13 13 14 14 14 14 14 15 15 15 15 15 16 16 17
21 21 21 21 21 20 19 18 17 16 15 14 13 14 14 13 12 12 12 13 13 12 11 12 13 13 14 14 14 14 14 14 14 15 15 16 16 15 15 16 16 16 16 16
23 23 22 21 21 21 20 19 18 17 17 16 14 15 16 15 14 14 14 13 14 14 14 14 14 14 15 15 14 15 14 15 15 16 16 16 17 17 17 17 17 17 17 18
24 24 23 21 20 20 21 21 21 20 19 18 17 17 17 16 15 15 14 14 15 14 14 15 15 15 15 15 15 16 16 16 16 17 17 17 17 18 18 18 18 18 19 19
25 24 24 24 24 22 22 22 22 21 21 20 19 19 18 17 17 16 16 16 16 15 15 15 15 16 16 16 16 17 17 18 18 18 19 19 19 19 19 19 19 19 20 21
25 25 25 25 24 24 23 22 21 21 21 22 21 20 19 19 19 19 18 18 17 16 16 17 17 17 18 17 17 18 18 19 20 20 20 20 20 20 21 21 21 21 21 22
24 24 24 23 23 24 25 23 22 22 22 22 22 21 20 19 20 21 19 18 18 18 19 19 19 19 19 19 18 19 20 20 21 21 21 21 21 21 22 22 22 23 23 23
25 24 24 24 25 26 24 24 24 24 23 23 23 22 22 21 20 20 20 20 20 20 21 21 21 21 21 20 20 21 21 21 21 22 22 22 22 22 23 23 24 25 25 25
26 26 26 26 26 27 27 26 24 24 25 24 23 23 23 22 22 22 22 23 23 22 22 22 22 22 22 22 22 23 22 22 22 23 23 23 24 24 25 25 26 26 27 26
28 28 28 29 28 27 27 26 26 26 27 24 24 24 24 23 23 23 23 24 24 23 22 22 22 23 24 24 24 24 24 23 23 24 24 25 26 26 26 27 27 27 27 28
29 29 29 29 29 28 28 28 27 27 26 25 25 25 25 24 24 24 24 24 24 23 23 23 24 24 25 25 25 25 25 25 25 25 26 26 26 27 28 28 27 27 28 28
29 29 29 28 29 29 29 28 27 26 25 25 25 25 25 25 25 25 25 25 24 24 24 24 24 25 25 25 25 25 25 26 26 26 27 28 27 27 27 27 26 26 27 27
30 30 30 30 30 29 28 27 26 26 26 26 26 25 25 26 26 26 26 26 25 25 25 25 26 25 26 25 26 26 26 27 27 28 28 28 29 28 28 27 27 28 28 27
30 29 29 29 29 29 28 27 26 26 27 27 26 26 26 26 27 27 27 27 27 27 26 25 26 26 26 26 27 27 27 28 29 29 29 29 29 29 28 28 28 28 27 27
30 29 28 29 28 27 27 27 27 27 27 27 27 27 27 27 27 28 28 28 27 27 27 26 27 27 27 27 28 28 29 29 29 30 30 30 29 29 28 28 28 28 28 29
29 29 28 28 28 27 27 27 27 27 27 27 27 27 27 28 28 28 28 28 27 27 27 28 28 28 28 28 29 29 29 30 30 31 30 30 29 29 28 28 28 29 30 30
Wind_Direction
206 206 209 212 217 215 212 225 242 253 275 290 317 334 326 312 333 348 354 357 358 359 357 350 348 345 347 352 358 4 9 11 8 8 4 360 355 352 346 340 343 344 342 338
212 215 218 219 222 222 221 234 247 260 272 279 292 308 314 304 314 327 335 343 348 348 343 345 337 334 332 330 327 331 335 339 341 340 340 342 340 338 333 331 335 337 336 337
215 219 222 224 224 226 225 233 240 253 271 290 301 305 299 299 300 309 318 324 328 329 331 334 334 329 325 319 315 317 325 322 319 320 325 329 331 331 327 326 327 329 329 330
220 222 223 222 221 217 223 232 239 249 268 289 300 308 299 293 293 298 313 320 324 320 319 322 324 320 314 305 301 303 306 313 315 318 320 321 322 325 324 322 319 318 319 320
223 223 224 222 220 219 222 230 236 245 259 276 286 289 290 287 293 295 305 316 319 317 314 313 314 314 308 298 296 295 297 305 309 315 320 319 321 320 317 318 319 320 322 322
222 224 223 222 223 225 227 232 243 249 255 265 269 271 280 284 292 295 299 308 313 314 310 310 308 309 307 297 292 290 291 299 303 310 312 309 313 314 316 316 317 317 316 316
225 226 227 226 226 228 228 232 246 255 255 258 263 266 268 277 290 296 297 300 301 305 307 304 304 303 302 298 293 291 293 298 304 307 307 306 310 309 311 313 313 314 312 311
227 228 230 228 226 227 230 229 232 244 252 263 266 265 272 280 284 291 294 293 295 297 296 296 297 296 295 295 295 292 294 298 301 303 305 306 307 307 308 310 311 311 312 313
225 228 230 230 226 227 230 234 234 245 250 255 264 272 278 281 283 287 291 292 296 296 295 298 293 290 292 293 296 293 293 295 299 300 300 303 304 305 306 307 308 307 308 311
227 229 231 233 231 232 234 237 240 241 248 253 262 271 276 280 282 282 285 289 294 292 292 293 288 287 294 292 293 295 295 294 295 296 295 299 304 304 305 306 305 307 307 308
227 231 233 236 234 236 238 238 239 241 243 248 261 270 275 280 279 280 285 284 288 289 289 288 285 291 293 296 293 293 294 292 292 294 297 299 303 303 304 306 306 307 308 309
228 229 232 237 239 239 239 240 242 245 248 250 255 266 273 277 275 278 282 283 282 283 284 287 289 291 293 293 292 291 292 294 295 297 299 299 299 300 302 305 307 307 308 310
228 230 233 238 242 243 242 243 242 243 249 252 257 266 271 274 274 277 278 280 277 277 282 287 290 292 292 292 289 289 291 292 294 297 299 299 299 299 300 301 302 304 305 307
231 232 233 234 239 245 247 247 245 244 246 251 256 262 270 272 273 273 273 275 277 279 283 287 290 294 294 291 288 288 289 290 292 295 298 299 298 297 296 297 298 300 303 305
233 233 234 235 237 241 245 247 248 248 246 250 257 262 266 266 267 268 269 273 275 279 283 288 291 291 293 294 293 291 290 289 292 294 296 298 298 296 295 294 295 298 300 303
234 236 237 239 240 242 244 248 250 251 252 255 259 263 265 264 263 265 267 271 273 277 281 284 287 288 290 292 293 292 290 291 292 294 294 294 295 296 297 294 294 297 299 301
235 237 238 241 241 244 247 247 251 254 255 258 260 262 265 265 262 262 266 268 271 275 278 280 283 284 287 289 291 292 291 290 292 293 294 293 294 294 294 294 294 296 297 299
236 237 240 241 243 244 247 248 251 254 256 257 259 260 263 266 267 265 266 268 269 272 275 278 279 280 282 285 288 289 289 288 290 291 292 292 294 293 293 293 295 299 298 299
236 239 241 242 246 250 249 250 253 255 256 258 258 258 260 263 265 265 267 269 269 271 273 275 276 277 279 281 284 285 287 287 290 292 291 291 291 292 292 294 295 298 298 297
236 240 242 243 244 247 251 253 254 256 258 257 257 257 259 262 264 267 268 270 270 272 273 274 276 278 278 280 282 283 286 287 290 292 292 290 291 291 292 293 294 297 297 296
239 241 242 243 246 249 252 254 255 254 257 258 257 257 258 261 264 267 269 270 270 271 273 275 276 277 279 281 281 282 283 286 288 289 291 292 291 292 292 294 296 295 296 296
240 241 242 245 247 249 252 254 254 256 256 257 258 258 258 260 263 266 267 269 269 270 272 274 276 276 278 279 281 281 281 283 285 286 289 291 292 293 294 294 296 296 297 297
240 241 244 246 249 252 253 254 256 256 256 257 258 258 259 260 262 264 266 267 268 270 272 273 276 278 279 279 282 282 282 284 287 286 288 289 291 292 293 293 293 295 296 296
241 241 244 248 251 252 254 254 254 255 256 257 257 258 259 260 262 264 265 266 268 270 271 274 276 278 280 280 282 283 282 283 285 287 289 291 292 292 292 292 293 295 295 296
244 244 247 248 250 252 252 253 253 254 255 256 256 258 260 261 262 263 264 266 269 269 271 273 275 276 278 280 281 282 282 282 283 285 287 289 290 291 291 292 292 294 295 295
243 246 248 249 250 251 252 253 254 254 254 254 256 259 260 262 264 265 265 266 269 271 271 272 272 274 277 279 281 282 281 282 283 284 286 288 289 289 291 293 293 294 294 294
Height
5907 5910 5911 5912 5912 5913 5914 5915 5915 5915 5915 5914 5914 5913 5912 5910 5909 5908 5907 5906 5905 5904 5902 5901 5900 5899 5898 5896 5895 5894 5893 5892 5891 5890 5889 5888 5886 5885 5883 5882 5881 5879 5877 5876
5907 5908 5909 5909 5910 5911 5913 5914 5914 5914 5914 5914 5913 5912 5911 5910 5909 5908 5907 5906 5905 5904 5902 5901 5900 5898 5897 5897 5895 5894 5893 5892 5891 5890 5889 5887 5886 5884 5883 5882 5880 5879 5877 5875
5904 5906 5906 5907 5908 5909 5911 5912 5913 5913 5913 5913 5913 5912 5911 5910 5908 5908 5907 5906 5905 5903 5902 5901 5899 5898 5897 5896 5895 5894 5893 5892 5890 5889 5888 5887 5886 5884 5882 5881 5879 5878 5876 5874
5901 5902 5904 5905 5907 5908 5909 5910 5911 5912 5912 5912 5912 5912 5910 5909 5908 5907 5906 5905 5904 5902 5901 5900 5899 5898 5897 5896 5894 5893 5892 5891 5890 5889 5887 5886 5884 5883 5881 5880 5878 5877 5875 5873
5898 5899 5901 5903 5904 5905 5907 5908 5909 5910 5910 5911 5911 5911 5911 5908 5907 5906 5905 5904 5903 5901 5900 5899 5898 5896 5895 5894 5893 5892 5891 5890 5889 5888 5886 5885 5883 5882 5880 5878 5877 5875 5873 5872
5895 5896 5898 5899 5901 5903 5904 5906 5907 5908 5909 5910 5909 5909 5909 5907 5906 5905 5904 5902 5901 5900 5899 5897 5896 5895 5894 5893 5892 5891 5890 5889 5888 5886 5885 5884 5882 5880 5879 5877 5875 5874 5872 5870
5892 5893 5895 5896 5898 5900 5902 5905 5907 5908 5908 5908 5907 5907 5907 5905 5904 5903 5902 5901 5899 5898 5897 5895 5894 5893 5892 5891 5890 5889 5888 5887 5886 5885 5883 5882 5880 5878 5877 5875 5873 5871 5870 5868
5889 5892 5892 5893 5896 5897 5899 5903 5906 5907 5907 5906 5904 5904 5905 5903 5902 5901 5900 5898 5897 5896 5895 5893 5892 5891 5890 5889 5888 5887 5886 5885 5884 5882 5881 5880 5878 5876 5874 5873 5871 5869 5867 5865
5886 5888 5889 5890 5892 5894 5896 5898 5901 5902 5902 5903 5902 5901 5901 5900 5899 5898 5897 5896 5895 5894 5893 5891 5890 5888 5887 5886 5885 5884 5883 5882 5881 5880 5878 5877 5876 5874 5872 5870 5868 5866 5864 5862
5881 5883 5885 5886 5888 5890 5893 5894 5896 5898 5899 5900 5900 5899 5899 5897 5896 5896 5895 5894 5892 5891 5890 5889 5887 5886 5885 5884 5883 5882 5881 5879 5878 5877 5875 5874 5873 5871 5869 5867 5865 5863 5861 5859
5876 5879 5881 5882 5884 5886 5888 5890 5891 5893 5895 5897 5898 5898 5895 5893 5893 5892 5892 5891 5890 5889 5888 5886 5885 5884 5883 5881 5880 5879 5878 5877 5875 5874 5872 5871 5869 5868 5866 5863 5861 5859 5857 5855
5871 5874 5876 5878 5880 5881 5883 5885 5887 5890 5890 5891 5893 5896 5890 5890 5890 5889 5889 5888 5887 5886 5885 5884 5882 5881 5880 5879 5877 5876 5875 5874 5872 5871 5869 5868 5866 5864 5862 5860 5858 5856 5854 5852
5866 5869 5872 5874 5877 5877 5878 5880 5882 5885 5886 5887 5889 5891 5886 5886 5886 5886 5885 5884 5884 5883 5881 5881 5879 5878 5877 5875 5874 5873 5872 5870 5869 5867 5866 5864 5862 5860 5858 5856 5854 5852 5850 5848
5861 5864 5868 5871 5872 5873 5873 5875 5877 5880 5881 5882 5883 5884 5883 5882 5882 5881 5881 5880 5880 5879 5878 5877 5876 5875 5874 5872 5871 5869 5868 5866 5865 5863 5861 5860 5857 5856 5854 5852 5850 5848 5846 5844
5855 5858 5861 5864 5866 5867 5868 5870 5872 5873 5875 5877 5878 5878 5878 5877 5877 5877 5876 5876 5875 5874 5874 5873 5872 5871 5870 5868 5866 5865 5863 5862 5860 5859 5857 5855 5853 5851 5849 5847 5845 5843 5841 5839
5849 5853 5855 5857 5859 5861 5862 5864 5866 5867 5869 5870 5871 5872 5872 5872 5872 5872 5872 5871 5870 5870 5869 5869 5868 5867 5865 5864 5862 5860 5859 5857 5856 5854 5852 5850 5848 5846 5844 5842 5840 5838 5836 5834
5844 5847 5850 5852 5854 5855 5857 5859 5860 5861 5863 5864 5865 5866 5866 5866 5866 5866 5866 5866 5866 5865 5865 5864 5863 5862 5861 5859 5857 5855 5854 5852 5851 5849 5847 5845 5843 5841 5839 5837 5834 5832 5830 5828
5838 5841 5843 5846 5848 5849 5853 5853 5854 5855 5856 5857 5858 5859 5859 5860 5860 5860 5860 5860 5860 5860 5859 5858 5857 5856 5855 5854 5852 5850 5849 5847 5846 5844 5842 5840 5837 5835 5833 5831 5829 5826 5824 5822
5832 5834 5837 5840 5841 5843 5845 5846 5847 5849 5849 5851 5851 5852 5853 5853 5853 5854 5854 5854 5854 5854 5853 5853 5852 5850 5849 5848 5846 5845 5843 5842 5840 5838 5836 5834 5832 5829 5827 5825 5822 5820 5817 5815
5825 5827 5830 5832 5834 5836 5839 5839 5840 5842 5842 5844 5844 5845 5846 5847 5847 5848 5848 5847 5847 5847 5847 5846 5845 5844 5843 5841 5840 5838 5837 5836 5834 5832 5829 5827 5825 5823 5820 5818 5816 5813 5810 5808
5818 5820 5822 5824 5826 5828 5830 5831 5833 5836 5837 5837 5837 5838 5839 5840 5841 5841 5840 5840 5840 5840 5840 5839 5838 5837 5836 5835 5833 5832 5830 5829 5828 5825 5823 5821 5818 5816 5813 5811 5808 5806 5803 5801
5810 5813 5815 5817 5819 5822 5822 5823 5826 5827 5828 5828 5829 5831 5832 5833 5833 5833 5833 5833 5833 5833 5833 5832 5831 5830 5829 5828 5827 5825 5824 5822 5820 5818 5816 5814 5811 5809 5806 5804 5801 5799 5796 5793
5802 5805 5807 5810 5812 5813 5814 5815 5817 5818 5820 5820 5821 5823 5824 5825 5826 5826 5826 5826 5826 5826 5825 5825 5824 5823 5822 5821 5819 5818 5817 5815 5813 5811 5809 5806 5804 5801 5799 5797 5794 5791 5789 5786
5794 5797 5799 5801 5803 5805 5806 5808 5809 5810 5812 5813 5814 5815 5816 5817 5818 5818 5818 5818 5818 5818 5818 5817 5816 5816 5814 5813 5812 5810 5809 5808 5806 5804 5801 5799 5796 5794 5791 5789 5787 5784 5782 5779
5786 5789 5791 5794 5796 5797 5798 5800 5801 5803 5804 5805 5806 5808 5809 5809 5810 5810 5810 5810 5810 5810 5810 5809 5809 5808 5807 5805 5804 5802 5801 5800 5798 5796 5793 5791 5788 5786 5784 5781 5779 5777 5775 5772
5779 5782 5784 5786 5788 5790 5791 5792 5793 5795 5796 5798 5799 5800 5801 5801 5801 5801 5802 5802 5802 5802 5801 5801 5801 5800 5799 5798 5796 5795 5793 5792 5790 5787 5785 5783 5780 5778 5776 5774 5772 5769 5767 5764